Wind_Speed
8 7 7 7 7 7 9 10 11 11 11 11 11 11 11 10 9 9 8 8 7 7 6 5 5 5 5 5 5 5 5 5 5 5 4 4 4 5 4 4 4 5 5
7 7 6 6 6 7 8 9 10 11 11 11 11 11 10 10 9 8 8 7 7 6 6 5 4 5 5 5 5 5 5 5 5 5 5 4 4 4 4 4 4 5 5
7 6 6 6 6 7 7 8 9 10 10 10 10 10 9 9 9 8 7 7 6 6 5 5 5 5 5 5 5 5 5 5 5 5 4 3 4 4 4 3 4 4 5
6 6 5 5 6 6 7 7 8 9 9 9 9 9 9 9 8 7 7 6 6 6 5 5 5 5 5 5 5 5 5 5 5 4 4 3 3 3 3 4 4 4 4
5 5 4 4 5 6 7 7 7 8 8 9 9 9 9 8 8 7 7 6 6 5 5 5 5 5 5 5 5 5 5 5 4 4 4 3 3 3 3 3 4 3 3
4 3 3 3 4 5 6 7 7 7 7 8 8 8 8 8 7 6 6 6 6 5 5 5 5 5 5 5 5 5 5 4 4 4 4 4 3 3 3 3 2 2 3
4 3 2 3 4 5 6 6 6 6 7 7 7 8 8 7 6 6 6 6 5 5 5 5 5 5 5 5 5 5 5 4 4 3 3 3 3 3 2 2 2 2 2
4 3 2 2 3 5 5 6 6 6 6 6 6 7 7 7 6 6 6 6 6 5 5 5 5 4 4 5 5 4 5 4 4 3 3 3 3 3 2 2 1 2 2
4 2 1 2 3 4 6 6 5 5 6 6 6 6 6 6 6 6 6 6 6 5 5 5 5 5 5 5 5 5 4 4 3 3 3 2 2 2 2 1 1 2 2
5 3 1 2 3 4 5 5 5 4 5 6 6 6 6 6 6 5 5 5 5 5 5 5 5 5 5 5 5 4 4 4 3 3 2 2 2 2 1 1 1 2 2
6 3 1 1 2 3 3 4 4 5 5 6 6 6 6 6 6 5 5 5 4 4 5 5 5 5 4 4 4 4 4 3 3 3 2 2 2 2 1 1 1 2 2
6 3 1 1 1 2 3 4 5 5 6 6 6 6 6 5 5 5 5 5 5 4 4 4 5 4 4 4 4 4 3 3 3 3 2 2 2 2 1 1 2 2 2
6 4 2 0 1 2 3 4 5 6 6 7 7 6 6 5 5 5 5 5 5 4 4 4 4 4 3 3 3 3 3 3 3 2 2 2 2 2 2 2 2 2 3
7 5 3 2 2 3 3 3 5 6 6 7 7 7 6 6 6 5 5 5 5 5 4 4 4 3 3 3 4 3 2 2 2 2 2 2 1 1 2 2 3 3 3
8 6 5 4 3 3 3 3 4 5 6 7 8 8 7 6 6 6 5 5 5 5 4 4 4 3 3 3 3 3 3 2 2 2 2 2 2 2 2 3 3 3 3
10 8 6 5 4 3 4 4 5 5 6 7 8 8 8 7 7 6 6 5 5 5 4 4 4 3 3 3 3 3 3 3 2 2 2 2 3 3 3 3 3 3 4
11 10 8 6 4 4 4 4 5 6 6 7 7 8 8 8 8 8 7 6 5 5 4 4 4 3 3 3 3 4 3 3 3 3 3 3 4 4 4 4 4 4 5
11 10 9 6 5 5 5 5 5 6 6 6 7 8 8 9 9 9 8 7 6 6 5 5 5 4 4 3 4 4 4 5 4 4 4 5 5 5 5 5 5 5 6
12 10 9 8 7 6 5 6 7 7 8 7 8 8 9 9 9 8 8 8 8 7 6 6 6 6 5 4 4 4 5 5 5 5 5 6 6 7 7 7 7 6 7
12 10 9 8 7 6 5 5 6 6 7 8 8 9 10 10 9 9 9 8 8 8 7 7 8 7 7 6 6 6 6 6 6 7 7 7 7 7 8 8 8 8 8
11 10 10 8 8 6 4 4 5 6 6 7 9 9 10 10 10 10 9 9 9 9 9 9 9 8 8 8 7 7 7 7 8 8 9 9 9 9 9 10 10 10 10
11 10 10 9 8 7 5 4 4 5 5 7 8 9 10 11 11 11 11 10 10 10 10 10 10 10 9 9 9 9 8 9 9 9 10 10 10 11 11 11 11 12 12
12 10 9 8 7 6 6 5 4 5 5 5 7 9 10 11 12 12 11 11 10 10 10 11 11 10 10 10 10 10 9 10 10 11 11 11 11 12 12 12 13 13 14
12 10 9 7 6 6 6 5 5 5 6 6 7 7 10 11 12 12 12 12 11 11 11 11 12 12 12 12 11 11 11 11 12 12 12 12 12 12 13 13 14 14 14
11 10 8 7 7 7 6 6 7 7 6 7 8 8 8 11 12 12 13 13 13 13 12 12 13 13 13 13 13 13 13 13 13 13 13 13 13 14 14 14 15 16 16
11 10 8 7 7 8 8 8 8 8 7 8 8 9 9 10 12 13 14 14 14 14 13 13 13 14 14 15 15 15 15 15 15 15 15 15 16 16 16 16 17 17 17
Wind_Direction
110 113 121 130 135 135 138 137 134 128 124 121 120 119 117 117 116 115 115 114 116 116 116 115 114 114 111 109 106 107 107 108 104 105 110 113 114 121 120 122 119 117 113
106 112 123 133 132 132 134 139 134 128 125 123 122 120 118 116 115 115 117 115 115 117 119 119 119 117 111 108 110 109 110 112 109 106 108 106 109 118 117 118 120 121 118
108 113 121 128 130 133 136 138 135 130 126 124 124 122 121 119 116 114 116 117 118 119 121 119 121 121 117 116 113 112 112 116 113 106 101 99 104 117 117 124 117 118 121
109 114 120 129 133 137 136 135 133 130 126 127 127 124 122 121 120 117 117 119 121 120 123 126 129 125 120 120 119 116 118 122 121 112 104 102 107 114 116 123 122 121 128
110 119 126 140 147 149 147 138 132 129 128 128 127 125 122 120 120 122 122 123 125 127 131 131 130 125 124 122 119 118 121 125 126 119 114 112 113 117 121 130 129 129 134
100 119 134 151 165 162 154 147 141 137 135 133 130 127 125 122 122 126 127 130 135 137 141 138 133 130 130 126 122 124 125 121 120 116 120 122 120 123 127 135 144 142 142
83 102 137 160 174 170 161 155 148 145 143 142 138 134 129 124 124 131 128 128 134 135 134 133 134 135 135 130 124 128 128 122 116 119 129 132 129 135 139 152 170 157 162
64 86 133 173 184 181 171 165 159 153 150 146 143 144 140 132 128 130 130 131 133 129 129 128 127 131 132 133 132 130 130 128 124 127 136 139 143 145 149 152 179 181 175
46 64 127 179 186 183 177 173 171 169 166 157 154 153 150 148 141 136 133 127 125 126 127 129 132 134 131 132 134 134 137 141 140 140 143 146 151 155 160 163 185 200 196
31 40 76 158 178 184 182 184 186 183 176 171 166 163 160 156 150 142 136 130 124 129 131 135 137 140 138 135 137 141 144 149 150 151 157 160 157 166 174 198 224 228 232
28 36 74 158 183 193 198 199 198 193 188 182 176 172 168 163 158 151 146 139 132 130 137 141 141 145 145 143 144 145 143 151 158 163 170 179 185 192 201 245 247 244 243
26 32 44 166 199 214 219 220 214 205 199 193 188 181 175 170 164 158 158 153 145 137 138 144 151 150 153 155 152 150 150 156 163 168 174 187 202 221 241 258 252 252 251
13 12 9 307 241 235 236 229 219 214 208 202 197 187 179 176 173 169 166 163 158 150 147 147 153 156 166 167 167 162 154 158 165 174 178 188 210 227 248 265 272 261 257
10 5 343 305 270 255 238 225 218 215 209 203 199 192 186 181 180 178 175 171 166 158 153 153 156 164 174 181 183 181 175 170 170 181 195 199 213 235 261 276 282 278 271
1 357 339 314 289 274 251 220 219 217 212 201 198 197 194 189 187 185 182 174 168 166 163 167 166 164 173 180 188 190 193 192 189 190 203 218 231 250 264 274 276 277 275
351 346 333 309 290 278 249 228 226 220 211 201 199 200 199 198 196 195 189 183 178 178 181 180 183 179 182 191 199 198 202 209 212 217 231 246 251 262 268 270 279 282 273
346 344 338 324 296 287 260 238 225 221 216 208 205 205 204 203 202 201 198 196 191 192 198 196 195 197 193 201 208 210 218 228 234 241 248 252 258 268 276 278 278 278 272
345 346 341 333 315 295 272 250 237 231 227 221 218 213 209 207 207 207 205 206 205 208 213 210 203 208 208 213 220 226 231 236 245 253 258 261 263 268 277 283 281 279 273
348 343 336 329 315 293 284 254 249 244 234 226 221 217 213 210 211 212 212 213 215 218 222 223 217 220 223 227 235 238 241 243 251 259 265 268 267 266 271 277 282 282 279
341 339 333 327 320 307 299 270 249 243 232 228 224 224 218 217 218 222 221 220 224 228 231 229 225 228 233 238 245 250 254 258 262 265 269 269 269 268 269 275 281 280 279
337 337 336 332 325 322 312 285 258 249 238 234 228 228 223 221 223 227 229 231 231 233 236 233 232 234 238 242 248 254 260 265 268 268 270 270 271 271 272 275 278 279 278
331 329 331 327 324 319 309 300 277 250 241 241 233 229 228 226 226 226 229 234 235 239 241 240 239 241 244 247 251 255 261 264 267 270 272 273 273 273 274 275 277 276 277
323 321 322 320 320 317 312 308 290 262 257 243 240 232 230 229 228 227 230 236 237 240 245 247 246 245 246 249 253 257 262 267 269 271 272 273 274 276 276 277 277 277 277
320 317 321 319 315 311 310 307 299 280 268 259 255 243 236 231 230 232 238 239 240 245 249 250 249 248 250 253 256 260 264 268 269 270 272 276 277 278 278 278 279 277 278
318 314 314 315 309 303 304 305 297 279 265 260 256 253 251 241 236 241 243 243 244 248 251 253 252 252 253 255 257 261 265 269 270 271 272 275 276 277 279 280 278 278 279
314 306 307 307 305 301 295 297 300 284 274 264 256 257 258 251 244 247 247 250 251 253 257 256 253 255 256 257 260 262 265 268 269 271 272 273 275 276 277 278 276 276 277
Height
5900 5900 5900 5901 5901 5901 5901 5902 5902 5902 5902 5903 5903 5904 5904 5904 5905 5905 5905 5906 5906 5906 5907 5907 5907 5907 5907 5908 5908 5908 5908 5908 5909 5909 5909 5909 5909 5909 5909 5909 5909 5908 5909
5901 5901 5901 5902 5902 5902 5902 5902 5902 5903 5903 5903 5903 5904 5904 5905 5905 5906 5906 5906 5907 5907 5907 5907 5908 5908 5908 5908 5909 5909 5909 5909 5909 5909 5909 5909 5909 5910 5910 5910 5909 5909 5910
5902 5902 5902 5902 5903 5903 5903 5903 5903 5903 5903 5904 5904 5904 5905 5905 5905 5906 5906 5907 5907 5907 5908 5908 5908 5908 5908 5909 5909 5909 5909 5910 5910 5910 5910 5910 5910 5910 5910 5910 5910 5910 5910
5903 5903 5903 5903 5903 5903 5904 5904 5904 5904 5904 5904 5905 5905 5905 5905 5906 5906 5907 5907 5907 5908 5908 5908 5908 5909 5909 5909 5910 5910 5910 5910 5910 5910 5911 5911 5911 5911 5911 5911 5911 5912 5911
5903 5903 5903 5904 5904 5904 5904 5905 5905 5905 5905 5905 5905 5905 5906 5906 5906 5906 5907 5907 5908 5908 5908 5908 5909 5909 5909 5910 5910 5910 5911 5911 5911 5911 5911 5911 5911 5911 5912 5912 5912 5912 5912
5904 5904 5904 5904 5904 5904 5905 5905 5905 5905 5905 5905 5906 5906 5906 5906 5906 5907 5907 5907 5908 5908 5909 5909 5909 5909 5910 5910 5910 5911 5911 5911 5911 5911 5911 5912 5912 5912 5912 5913 5913 5913 5913
5904 5904 5904 5904 5904 5905 5905 5905 5905 5906 5906 5906 5906 5906 5906 5906 5907 5907 5907 5908 5908 5908 5909 5909 5909 5910 5910 5910 5911 5911 5912 5912 5912 5912 5912 5912 5913 5913 5913 5913 5913 5913 5914
5904 5904 5904 5904 5904 5905 5905 5905 5906 5906 5906 5906 5906 5906 5907 5907 5907 5907 5907 5908 5908 5908 5909 5909 5909 5910 5910 5911 5911 5911 5912 5912 5912 5913 5913 5913 5913 5913 5914 5914 5914 5914 5914
5904 5904 5904 5904 5904 5904 5905 5905 5905 5906 5906 5906 5906 5907 5907 5907 5907 5907 5908 5908 5908 5909 5909 5909 5910 5910 5911 5911 5911 5912 5912 5913 5913 5913 5913 5913 5913 5914 5914 5914 5914 5914 5914
5904 5904 5904 5903 5903 5904 5904 5905 5905 5905 5906 5906 5906 5906 5907 5907 5907 5908 5908 5908 5908 5909 5909 5909 5910 5910 5911 5911 5912 5912 5912 5913 5913 5913 5913 5913 5913 5914 5914 5914 5914 5914 5914
5904 5903 5903 5903 5903 5903 5903 5904 5904 5905 5905 5905 5906 5906 5906 5907 5907 5908 5908 5908 5909 5909 5909 5910 5910 5911 5911 5912 5912 5912 5913 5913 5913 5913 5913 5913 5914 5914 5914 5914 5914 5914 5914
5904 5903 5903 5902 5902 5902 5902 5903 5903 5904 5904 5905 5905 5906 5906 5906 5907 5907 5908 5909 5909 5909 5910 5910 5910 5911 5911 5912 5912 5912 5913 5913 5913 5913 5913 5913 5914 5914 5914 5914 5913 5913 5913
5904 5903 5902 5901 5901 5901 5901 5902 5902 5903 5903 5904 5905 5905 5906 5906 5907 5907 5908 5909 5909 5909 5910 5910 5910 5911 5911 5911 5912 5912 5912 5913 5913 5913 5913 5913 5913 5913 5913 5913 5913 5913 5913
5904 5903 5902 5901 5900 5900 5900 5901 5901 5902 5902 5903 5904 5905 5905 5906 5906 5907 5908 5908 5909 5909 5910 5910 5910 5911 5911 5911 5912 5912 5912 5913 5913 5913 5913 5913 5913 5913 5913 5913 5913 5913 5913
5905 5903 5902 5901 5900 5900 5899 5900 5900 5901 5901 5902 5903 5904 5905 5905 5906 5907 5907 5908 5908 5909 5910 5910 5910 5911 5911 5911 5912 5912 5912 5912 5912 5913 5913 5913 5913 5913 5913 5912 5912 5912 5912
5904 5903 5901 5900 5899 5899 5898 5898 5899 5900 5900 5901 5902 5903 5904 5904 5905 5906 5907 5907 5908 5909 5909 5910 5910 5910 5911 5911 5911 5912 5912 5912 5912 5912 5912 5912 5912 5912 5912 5912 5912 5911 5911
5903 5901 5900 5898 5898 5898 5897 5897 5898 5898 5899 5900 5901 5902 5903 5904 5904 5905 5906 5907 5907 5908 5909 5909 5910 5910 5911 5911 5911 5911 5912 5912 5912 5912 5912 5912 5912 5911 5911 5911 5911 5911 5910
5902 5901 5899 5898 5898 5897 5896 5896 5896 5897 5898 5899 5900 5901 5902 5903 5903 5904 5905 5906 5907 5908 5908 5909 5909 5910 5910 5911 5911 5911 5911 5911 5911 5911 5911 5911 5911 5910 5910 5910 5910 5910 5909
5902 5900 5899 5898 5897 5896 5895 5895 5895 5896 5896 5897 5898 5899 5900 5902 5902 5903 5904 5905 5906 5907 5907 5908 5909 5909 5910 5910 5910 5910 5910 5910 5910 5910 5910 5910 5909 5909 5909 5909 5909 5909 5908
5901 5899 5898 5896 5895 5895 5894 5893 5894 5894 5895 5896 5897 5898 5899 5900 5901 5902 5903 5904 5905 5906 5906 5907 5907 5908 5909 5909 5909 5909 5909 5909 5909 5909 5909 5908 5908 5908 5908 5908 5907 5907 5907
5900 5898 5897 5896 5894 5894 5893 5893 5893 5893 5893 5894 5895 5896 5897 5898 5899 5900 5901 5902 5903 5904 5905 5905 5906 5906 5907 5907 5908 5908 5908 5907 5908 5908 5907 5907 5907 5907 5906 5906 5905 5905 5905
5900 5898 5896 5895 5894 5894 5893 5892 5892 5892 5892 5893 5893 5894 5895 5896 5897 5898 5899 5900 5901 5902 5903 5903 5904 5904 5905 5905 5906 5906 5906 5906 5906 5906 5906 5905 5905 5905 5904 5904 5903 5903 5902
5898 5897 5896 5894 5893 5893 5892 5891 5891 5891 5891 5891 5892 5892 5893 5894 5895 5896 5897 5898 5899 5900 5900 5901 5902 5902 5903 5903 5904 5904 5904 5904 5904 5904 5903 5903 5903 5902 5902 5901 5901 5900 5899
5897 5896 5895 5893 5892 5892 5891 5891 5890 5890 5890 5890 5890 5890 5891 5892 5892 5893 5894 5895 5896 5897 5898 5899 5899 5900 5900 5901 5901 5902 5902 5902 5902 5901 5901 5900 5900 5900 5899 5899 5898 5897 5897
5896 5894 5893 5893 5892 5891 5890 5890 5889 5889 5888 5889 5889 5889 5889 5890 5890 5891 5892 5893 5894 5895 5896 5896 5897 5897 5897 5898 5898 5899 5899 5899 5899 5899 5898 5898 5897 5897 5896 5895 5895 5894 5893
5895 5893 5892 5891 5890 5890 5889 5889 5888 5887 5887 5887 5887 5887 5887 5887 5888 5889 5890 5891 5891 5892 5893 5893 5893 5894 5894 5895 5895 5895 5896 5896 5896 5895 5895 5894 5894 5893 5893 5892 5891 5890 5889